Regional Weather Roundup
Issued by NWS

Current Version | Previous Version | Text Only | Print | Product List | Glossary On
Versions: 1 2 3 4 5 6 7 8 9 10 11 12 13 14 15 16 17 18 19 20 21 22 23 24 25 26 27 28 29 30 31 32 33 34 35 36 37 38 39 40 41 42 43 44 45 46 47 48 49 50
000
ASUS43 KLMK 290910
RWRKY
KENTUCKY REGIONAL WEATHER ROUNDUP
NATIONAL WEATHER SERVICE LOUISVILLE KY
500 AM EDT SAT AUG 29 2015

NOTE "FAIR" INDICATES FEW OR NO CLOUDS BELOW 12,000 FEET
WITH NO SIGNIFICANT WEATHER AND/OR OBSTRUCTIONS TO VISIBILITY.

KYZ001>023-026-027-061>063-070>075-291000-
WESTERN AND SOUTH CENTRAL KENTUCKY

CITY           SKY/WX    TMP DP  RH WIND       PRES   REMARKS
PADUCAH        CLOUDY    71  65  81 S7        30.03S
HENDERSON      CLOUDY    70  63  78 S6        30.04S
OWENSBORO      MOCLDY    69  66  90 SE6       30.07S
HOPKINSVILLE   CLEAR     71  65  82 SE5       30.07R
BOWLING GREEN  MOCLDY    67  62  84 SE3       30.10R
GLASGOW        CLEAR     69  64  85 CALM      30.11S
$$

KYZ024-025-028>034-038-045-046-053-291000-
NORTH CENTRAL KENTUCKY

CITY           SKY/WX    TMP DP  RH WIND       PRES   REMARKS
LOUISVILLE/SDF PTCLDY    69  62  78 SE7       30.09R
LOUISVILLE/LOU MOCLDY    70  62  76 S3        30.10R
FORT KNOX      PTCLDY    64  62  93 S5        30.09R
$$

KYZ035>037-039>044-047>052-055>060-089>105-291000-
NORTHEAST KENTUCKY

CITY           SKY/WX    TMP DP  RH WIND       PRES   REMARKS
LEXINGTON      CLEAR     67  62  84 SE8       30.13S
COVINGTON      CLOUDY    68  59  73 SE7       30.12R
FRANKFORT      PTCLDY    65  60  84 SE3       30.11S
$$

KYZ054-064>069-076>088-106>120-291000-
SOUTHEAST KENTUCKY

CITY           SKY/WX    TMP DP  RH WIND       PRES   REMARKS
JACKSON        PTCLDY    65  61  87 CALM      30.17R
LONDON         PTCLDY    65  61  87 CALM      30.17R
SOMERSET       CLEAR     61  61 100 CALM      30.16S FOG
MIDDLESBORO    MOCLDY    61  61  99 CALM      30.19R
MONTICELLO     SUNNY     59  59 100 CALM      30.17S
$$



USA.gov is the U.S. government's official web portal to all federal, state and local government web resources and services.